Houston, TX

11:57 PM CST on February 20, 2018 (GMT -0600)
Hobby

Weather History for KHOU - March, 2014

Change the Weather History Date:

Thursday, March 20, 2014

  Actual Average Record
Temperature  
Mean Temperature 66 °F 64 °F  
Max Temperature 76 °F 74 °F 90 °F (1907)
Min Temperature 56 °F 53 °F 24 °F (1923)
Degree Days  
Heating Degree Days 0 4  
Month to date heating degree days 182 108  
Since 1 July heating degree days 1662 1296  
Cooling Degree Days 1 2  
Month to date cooling degree days 13 38  
Year to date cooling degree days 47 76  
Growing Degree Days 16 (Base 50)    
Moisture  
Dew Point 45 °F    
Average Humidity 48    
Maximum Humidity 65    
Minimum Humidity 31    
Precipitation  
Precipitation 0.00 in 0.11 in 7.47 in (1972)
Month to date precipitation 2.21 2.20  
Year to date precipitation 5.56 8.78  
Sea Level Pressure  
Sea Level Pressure 30.14 in    
Wind  
Wind Speed 8 mph (ENE)    
Max Wind Speed 10 mph    
Max Gust Speed 17 mph    
Visibility 10 miles    
Events      
T = Trace of Precipitation, MM = Missing Value Source: NWS Daily Summary

Daily Weather History Graph

Daily Weather History Graph

Search for Another Location

Airport or City:

Trip Planner

Search our weather history database for the weather conditions in past years. The results will help you decide how hot, cold, wet, or windy it might be!

Date:

Astronomy

Mar. 20, 2014 Rise Set
Actual Time 7:24 AM CDT 7:32 PM CDT
Civil Twilight 7:01 AM CDT 7:56 PM CDT
Nautical Twilight 6:33 AM CDT 8:24 PM CDT
Astronomical Twilight 6:05 AM CDT 8:52 PM CDT
Moon 11:34 PM CDT (3/20) 9:49 AM CDT (3/20)
Length of Visible Light 12h 55m
Length of Day
12h 07m
Waning Gibbous, 84% of the Moon is Illuminated
Mar 20
Waning Gibbous
Mar 23
Last Quarter
Mar 30
New
Apr 7
First Quarter
Apr 15
Full

Hourly Weather History & Observations

Time (CDT) Temp. Dew Point Humidity Pressure Visibility Wind Dir Wind Speed Gust Speed Precip Events Conditions
12:53 AM 64.0 °F 44.1 °F 48% 30.16 in 10.0 mi North 11.5 mph - N/A   Overcast
1:53 AM 63.0 °F 42.1 °F 46% 30.17 in 10.0 mi North 9.2 mph - N/A   Overcast
2:53 AM 62.1 °F 42.1 °F 48% 30.16 in 10.0 mi NNE 11.5 mph - N/A   Overcast
3:53 AM 61.0 °F 42.1 °F 50% 30.15 in 10.0 mi NE 9.2 mph - N/A   Overcast
4:53 AM 60.1 °F 41.0 °F 49% 30.16 in 10.0 mi NNE 12.7 mph - N/A   Overcast
5:53 AM 60.1 °F 42.1 °F 51% 30.17 in 10.0 mi NNE 8.1 mph - N/A   Mostly Cloudy
6:53 AM 60.1 °F 42.1 °F 51% 30.19 in 10.0 mi NNE 8.1 mph - N/A   Mostly Cloudy
7:53 AM 57.9 °F 41.0 °F 53% 30.19 in 10.0 mi NE 10.4 mph - N/A   Scattered Clouds
8:53 AM 60.1 °F 42.1 °F 51% 30.21 in 10.0 mi NNE 11.5 mph - N/A   Scattered Clouds
9:53 AM 63.0 °F 42.1 °F 46% 30.22 in 10.0 mi NNE 10.4 mph - N/A   Partly Cloudy
10:53 AM 64.9 °F 43.0 °F 45% 30.22 in 10.0 mi ENE 8.1 mph - N/A   Partly Cloudy
11:53 AM 68.0 °F 44.1 °F 42% 30.21 in 10.0 mi ENE 5.8 mph - N/A   Partly Cloudy
12:53 PM 71.1 °F 44.1 °F 38% 30.18 in 10.0 mi SE 3.5 mph - N/A   Clear
1:53 PM 72.0 °F 44.1 °F 37% 30.16 in 10.0 mi ENE 3.5 mph - N/A   Clear
2:53 PM 73.9 °F 43.0 °F 33% 30.13 in 10.0 mi Calm Calm - N/A   Partly Cloudy
3:53 PM 75.9 °F 46.0 °F 35% 30.11 in 10.0 mi NNW 3.5 mph - N/A   Partly Cloudy
4:53 PM 73.9 °F 46.0 °F 37% 30.09 in 10.0 mi SE 3.5 mph - N/A   Mostly Cloudy
5:53 PM 75.0 °F 46.0 °F 36% 30.07 in 10.0 mi SSE 4.6 mph - N/A   Scattered Clouds
6:53 PM 71.1 °F 45.0 °F 39% 30.07 in 10.0 mi ESE 8.1 mph - N/A   Mostly Cloudy
7:53 PM 66.0 °F 48.0 °F 52% 30.07 in 10.0 mi South 5.8 mph - N/A   Scattered Clouds
8:53 PM 63.0 °F 51.1 °F 65% 30.08 in 10.0 mi South 6.9 mph - N/A   Mostly Cloudy
9:53 PM 60.1 °F 50.0 °F 69% 30.09 in 10.0 mi South 4.6 mph - N/A   Scattered Clouds
10:53 PM 57.9 °F 51.1 °F 78% 30.09 in 10.0 mi South 5.8 mph - N/A   Partly Cloudy
11:53 PM 57.0 °F 53.1 °F 87% 30.09 in 10.0 mi South 3.5 mph - N/A   Partly Cloudy